• In Belarus
  • List of Countries
  • For 7 days
  • Water Temperature
  • Satellite Maps
  • Weather Map
  • Weather Widgets
  • user-avatar
    Login

    Hourly Weather Gabrovo

    Today, 17 October, Wednesday

    Time Temperature Precipitation Wind Pressure Humidity
    00:00 +12°C° 0 mm 1 mps 706 mmHg 57%
    01:00 +11°C° 0 mm 1 mps 706 mmHg 58%
    02:00 +11°C° 0 mm 1 mps 706 mmHg 56%
    03:00 +11°C° 0 mm 1 mps 705 mmHg 56%
    04:00 +10°C° 0 mm 2 mps 705 mmHg 57%
    05:00 +10°C° 0 mm 2 mps 705 mmHg 58%
    06:00 +10°C° 0 mm 2 mps 705 mmHg 57%
    07:00 +12°C° 0 mm 2 mps 705 mmHg 56%
    08:00 +13°C° 0 mm 2 mps 705 mmHg 53%
    09:00 +15°C° 0 mm 2 mps 706 mmHg 49%
    10:00 +17°C° 0 mm 2 mps 706 mmHg 45%
    11:00 +19°C° 0 mm 2 mps 706 mmHg 40%
    12:00 +19°C° 0 mm 2 mps 706 mmHg 39%
    13:00 +20°C° 0 mm 2 mps 705 mmHg 38%
    14:00 +21°C° 0 mm 2 mps 705 mmHg 37%
    15:00 +20°C° 0 mm 2 mps 705 mmHg 42%
    16:00 +19°C° 0 mm 2 mps 704 mmHg 46%
    17:00 +18°C° 0 mm 2 mps 704 mmHg 51%
    18:00 +16°C° 0 mm 1 mps 704 mmHg 55%
    19:00 +15°C° 0 mm 1 mps 704 mmHg 59%
    20:00 +14°C° 0 mm 1 mps 704 mmHg 64%
    21:00 +14°C° 0 mm 1 mps 704 mmHg 65%
    22:00 +13°C° 0 mm 1 mps 704 mmHg 67%
    23:00 +13°C° 0 mm 1 mps 704 mmHg 68%

    Tomorrow, 18 October, Thursday

    Time Temperature Precipitation Wind Pressure Humidity
    00:00 +13°C° 0 mm 1 mps 704 mmHg 69%
    01:00 +12°C° 0 mm 1 mps 703 mmHg 70%
    02:00 +12°C° 0 mm 1 mps 703 mmHg 71%
    03:00 +12°C° 0 mm 1 mps 703 mmHg 72%
    04:00 +11°C° 0 mm 1 mps 703 mmHg 73%
    05:00 +11°C° 0 mm 1 mps 702 mmHg 75%
    06:00 +12°C° 0 mm 1 mps 703 mmHg 73%
    07:00 +12°C° 0 mm 1 mps 703 mmHg 70%
    08:00 +13°C° 0 mm 1 mps 703 mmHg 68%
    09:00 +15°C° 0 mm 1 mps 703 mmHg 62%
    10:00 +18°C° 0 mm 1 mps 704 mmHg 56%
    11:00 +19°C° 0 mm 1 mps 704 mmHg 50%
    12:00 +20°C° 0 mm 1 mps 704 mmHg 47%
    13:00 +21°C° 0 mm 1 mps 703 mmHg 45%
    14:00 +21°C° 0 mm 1 mps 703 mmHg 42%
    15:00 +21°C° 0 mm 1 mps 703 mmHg 45%
    16:00 +20°C° 0 mm 1 mps 702 mmHg 48%
    17:00 +19°C° 0 mm 1 mps 702 mmHg 51%
    18:00 +18°C° 0 mm 1 mps 702 mmHg 55%
    19:00 +16°C° 0 mm 1 mps 702 mmHg 59%
    20:00 +14°C° 0 mm 1 mps 702 mmHg 63%
    21:00 +14°C° 0 mm 1 mps 702 mmHg 65%
    22:00 +13°C° 0 mm 1 mps 702 mmHg 68%
    23:00 +13°C° 0 mm 1 mps 702 mmHg 70%

    Day after tomorrow, 19 October, Friday

    Time Temperature Precipitation Wind Pressure Humidity
    00:00 +13°C° 0 mm 1 mps 702 mmHg 71%
    01:00 +12°C° 0 mm 1 mps 702 mmHg 73%
    02:00 +12°C° 0 mm 1 mps 702 mmHg 74%
    03:00 +12°C° 0 mm 1 mps 702 mmHg 74%
    04:00 +12°C° 0 mm 1 mps 702 mmHg 75%
    05:00 +12°C° 0 mm 1 mps 702 mmHg 75%
    06:00 +12°C° 0 mm 1 mps 702 mmHg 72%
    07:00 +13°C° 0 mm 1 mps 702 mmHg 69%
    08:00 +14°C° 0 mm 1 mps 703 mmHg 67%
    09:00 +15°C° 0 mm 1 mps 703 mmHg 60%
    10:00 +18°C° 0 mm 1 mps 703 mmHg 54%
    11:00 +20°C° 0 mm 1 mps 703 mmHg 47%
    12:00 +21°C° 0 mm 1 mps 703 mmHg 45%
    13:00 +21°C° 0 mm 1 mps 703 mmHg 43%
    14:00 +22°C° 0 mm 1 mps 703 mmHg 42%
    15:00 +21°C° 0 mm 1 mps 703 mmHg 45%
    16:00 +20°C° 0 mm 1 mps 703 mmHg 48%
    17:00 +17°C° 0 mm 0 mps 702 mmHg 52%
    18:00 +18°C° 0 mm 1 mps 702 mmHg 55%
    19:00 +16°C° 0 mm 1 mps 703 mmHg 58%
    20:00 +15°C° 0 mm 1 mps 703 mmHg 61%
    21:00 +15°C° 0 mm 1 mps 703 mmHg 62%
    22:00 +15°C° 0 mm 1 mps 703 mmHg 62%
    23:00 +14°C° 0 mm 1 mps 703 mmHg 63%

    20 October, Saturday

    Time Temperature Precipitation Wind Pressure Humidity
    00:00 +14°C° 0 mm 1 mps 703 mmHg 64%
    01:00 +14°C° 0 mm 1 mps 703 mmHg 65%
    02:00 +13°C° 0 mm 1 mps 703 mmHg 66%
    03:00 +13°C° 0 mm 1 mps 703 mmHg 68%
    04:00 +12°C° 0 mm 1 mps 703 mmHg 69%
    05:00 +12°C° 0 mm 1 mps 703 mmHg 71%
    06:00 +12°C° 0.1 mm 1 mps 703 mmHg 69%
    07:00 +13°C° 0.1 mm 2 mps 704 mmHg 68%
    08:00 +13°C° 0.1 mm 2 mps 704 mmHg 66%
    09:00 +14°C° 0.7 mm 2 mps 704 mmHg 66%
    10:00 +14°C° 0.7 mm 2 mps 704 mmHg 65%
    11:00 +13°C° 0.7 mm 3 mps 704 mmHg 65%
    12:00 +13°C° 1.4 mm 3 mps 704 mmHg 68%
    13:00 +12°C° 1.4 mm 3 mps 704 mmHg 71%
    14:00 +11°C° 1.4 mm 3 mps 704 mmHg 74%
    15:00 +11°C° 0.9 mm 3 mps 704 mmHg 76%
    16:00 +12°C° 0.9 mm 2 mps 704 mmHg 78%
    17:00 +12°C° 0.9 mm 2 mps 704 mmHg 80%
    18:00 +10°C° 0.8 mm 2 mps 704 mmHg 81%
    19:00 +10°C° 0.8 mm 2 mps 704 mmHg 82%
    20:00 +10°C° 0.8 mm 2 mps 705 mmHg 83%
    21:00 +10°C° 0.8 mm 2 mps 705 mmHg 83%
    22:00 +10°C° 0.8 mm 2 mps 705 mmHg 84%
    23:00 +10°C° 0.8 mm 2 mps 705 mmHg 85%

    21 October, Sunday

    Time Temperature Precipitation Wind Pressure Humidity
    00:00 +10°C° 0.4 mm 2 mps 705 mmHg 86%
    01:00 +10°C° 0.4 mm 2 mps 705 mmHg 86%
    02:00 +10°C° 0.4 mm 2 mps 705 mmHg 87%
    03:00 +9°C° 0.1 mm 2 mps 705 mmHg 87%
    04:00 +9°C° 0.1 mm 2 mps 705 mmHg 88%
    05:00 +9°C° 0.1 mm 2 mps 704 mmHg 88%
    06:00 +9°C° 0 mm 2 mps 705 mmHg 86%
    07:00 +9°C° 0 mm 2 mps 705 mmHg 83%
    08:00 +10°C° 0 mm 2 mps 705 mmHg 81%
    09:00 +12°C° 0 mm 2 mps 705 mmHg 76%
    10:00 +13°C° 0 mm 2 mps 705 mmHg 70%
    11:00 +14°C° 0 mm 2 mps 705 mmHg 65%
    12:00 +14°C° 0.1 mm 2 mps 705 mmHg 64%
    13:00 +14°C° 0.1 mm 2 mps 704 mmHg 64%
    14:00 +15°C° 0.1 mm 2 mps 704 mmHg 63%
    15:00 +14°C° 0.3 mm 1 mps 703 mmHg 67%
    16:00 +13°C° 0.3 mm 1 mps 703 mmHg 71%
    17:00 +13°C° 0.3 mm 1 mps 702 mmHg 74%
    18:00 +12°C° 1.4 mm 1 mps 702 mmHg 78%
    19:00 +12°C° 1.4 mm 1 mps 702 mmHg 81%
    20:00 +11°C° 1.4 mm 1 mps 702 mmHg 84%
    21:00 +10°C° 1.5 mm 2 mps 702 mmHg 84%
    22:00 +9°C° 1.5 mm 2 mps 702 mmHg 84%
    23:00 +9°C° 1.5 mm 2 mps 702 mmHg 83%

    22 October, Monday

    Time Temperature Precipitation Wind Pressure Humidity
    00:00 +8°C° 0.9 mm 2 mps 702 mmHg 82%
    01:00 +8°C° 0.9 mm 2 mps 702 mmHg 80%
    02:00 +8°C° 0.9 mm 2 mps 702 mmHg 79%
    03:00 +7°C° 0.9 mm 2 mps 702 mmHg 79%
    04:00 +7°C° 0.9 mm 2 mps 702 mmHg 79%
    05:00 +6°C° 0.9 mm 2 mps 702 mmHg 80%
    06:00 +6°C° 0.3 mm 2 mps 702 mmHg 80%
    07:00 +6°C° 0.3 mm 2 mps 702 mmHg 80%
    08:00 +6°C° 0.3 mm 2 mps 703 mmHg 81%
    09:00 +7°C° 0.1 mm 2 mps 703 mmHg 77%
    10:00 +8°C° 0.1 mm 2 mps 703 mmHg 73%
    11:00 +9°C° 0.1 mm 2 mps 704 mmHg 69%
    12:00 +10°C° 0 mm 2 mps 703 mmHg 68%
    13:00 +10°C° 0 mm 2 mps 703 mmHg 67%
    14:00 +10°C° 0 mm 2 mps 703 mmHg 65%
    15:00 +10°C° 0 mm 2 mps 703 mmHg 67%
    16:00 +10°C° 0 mm 2 mps 703 mmHg 69%
    17:00 +9°C° 0 mm 2 mps 703 mmHg 71%
    18:00 +9°C° 0 mm 2 mps 703 mmHg 73%
    19:00 +9°C° 0 mm 1 mps 703 mmHg 75%
    20:00 +9°C° 0 mm 1 mps 703 mmHg 77%
    21:00 +8°C° 0 mm 1 mps 703 mmHg 78%
    22:00 +8°C° 0 mm 1 mps 703 mmHg 78%
    23:00 +8°C° 0 mm 1 mps 703 mmHg 79%
    Show more